CAPE
1407 1315 1802 1282 1284 866 1529 1277 1602 1619 1979 1444 1004 1058 2095 1922 1630 1133 1109 1220 1119 676 773 607 636 400 348 197 42 62 33 6 8 0 0 0 0 0 0 0 0 0 0 0 0 1 3 4 2 2 0 0 0 0 0 0 0 0 0 0 0 0 0 0 0 0 0 0 0 0 0 0 0 0 0 0 0 0 0 0 0 0 0 0 0
1977 2035 1563 1293 1470 1861 1338 1079 1029 1668 1825 1591 1433 1383 1903 1164 1092 857 1174 1041 1493 821 1042 958 460 515 673 315 502 61 22 61 2 10 0 0 0 0 0 0 0 0 0 0 0 0 0 0 1 1 1 0 0 0 0 0 0 0 0 0 0 0 0 0 0 0 0 0 0 0 0 0 0 0 0 0 0 0 0 0 0 0 0 0 0
1616 1696 2135 1821 1403 1649 1749 1350 828 1459 1068 887 1105 976 1262 1396 1142 764 806 831 437 504 1177 768 1055 545 837 505 408 272 94 23 66 1 2 0 0 0 0 0 0 0 0 0 0 0 0 0 0 0 0 0 0 0 0 0 0 0 0 0 0 0 0 0 0 0 0 0 0 0 0 0 0 0 0 0 0 0 0 0 0 0 0 0 0
1783 1696 1651 2178 1943 1714 1804 1764 1272 1069 778 807 1202 1392 1186 1153 1179 739 1097 1749 1022 956 1010 1156 646 592 365 498 620 618 108 270 42 75 5 2 0 0 0 0 0 0 0 0 0 0 0 0 0 0 0 0 0 0 0 0 0 0 0 0 0 0 0 0 0 0 0 0 0 0 0 0 0 0 0 0 0 0 0 0 0 0 0 0 0
1773 1704 1625 1881 1944 1849 1610 1713 1750 1292 1124 892 870 1348 1124 1074 1330 1171 1540 1438 1499 1004 902 836 1030 604 522 948 719 467 226 350 132 130 123 1 1 0 0 0 0 0 0 0 0 0 0 0 0 0 0 0 0 0 0 0 0 0 0 0 0 0 0 0 0 0 0 0 0 0 0 0 0 0 0 0 0 0 0 0 0 0 0 0 0
1702 1834 1914 1835 1789 1705 1750 1917 1928 1710 1520 1537 927 1087 1231 949 1045 898 1121 1075 1269 1388 1709 1042 519 622 873 715 877 729 460 311 324 113 387 48 6 0 0 0 0 0 0 0 0 0 0 0 0 0 0 0 0 0 0 0 0 0 0 0 0 0 0 0 0 0 0 0 0 0 0 0 0 0 0 0 0 0 0 0 0 0 0 0 0
1684 1857 1870 1827 1768 1992 2198 2042 1866 1520 1430 1428 1260 1182 1079 1055 837 600 811 1165 1045 890 937 1212 941 618 738 896 851 618 923 361 728 295 257 387 159 0 0 0 0 0 0 0 0 0 0 0 0 0 0 0 0 0 0 0 0 0 0 0 0 0 0 0 0 0 0 0 0 0 0 0 0 0 0 0 0 0 0 0 0 0 0 0 0
1620 1704 1928 1849 1715 1755 1994 2094 2054 1806 1530 1411 1639 1194 1095 873 910 963 899 638 863 614 1056 1147 1266 707 702 1395 1120 1283 952 770 755 732 352 425 308 186 4 0 0 0 0 0 0 0 0 0 0 0 0 0 0 0 0 0 0 0 0 0 0 0 0 0 0 0 0 0 0 0 0 0 0 0 0 0 0 0 0 0 0 0 0 0 0
1740 1708 1811 1820 1644 1719 1824 1927 2106 1885 1604 1772 1792 1524 1216 1103 1044 1129 994 756 314 114 484 946 1104 897 1001 1354 1542 1192 1145 972 1080 908 706 711 646 493 393 13 0 8 1 0 0 0 0 0 0 0 0 0 0 0 0 0 0 0 0 0 0 0 0 0 0 0 0 0 0 0 0 0 0 0 0 0 0 0 0 0 0 0 0 0 0
1945 1819 1863 1761 1563 1622 1696 1838 1922 2110 1984 1966 1666 1504 1400 1247 1210 1085 929 971 611 422 227 614 626 666 741 1287 1219 1460 1225 1283 1328 1060 1042 708 806 436 558 400 50 31 2 0 0 0 0 0 0 0 0 0 0 0 0 0 0 0 0 0 0 0 0 0 0 0 0 0 0 0 0 0 0 0 0 0 0 0 0 0 1 0 0 0 0
2152 2041 1990 1876 1718 1710 1846 1877 1890 1996 1971 1800 1476 1413 1483 1494 1186 1092 1279 1051 723 688 499 582 970 588 810 1326 1610 1731 1452 1285 1123 1063 1038 923 734 610 820 632 556 303 93 33 0 0 0 0 0 0 0 0 0 0 0 0 0 0 0 0 1 0 0 0 0 0 0 0 0 0 0 0 0 0 0 0 0 0 0 0 0 0 0 0 0
2042 2034 2077 2129 1623 1514 1759 2072 1805 1696 1911 1841 1536 1358 1508 1528 1459 950 760 852 636 603 362 323 432 937 773 994 1072 790 1269 1299 1223 1030 914 1039 1110 925 854 862 696 423 490 204 22 0 0 0 0 0 0 0 0 0 0 0 0 0 0 0 1 1 1 0 0 0 0 0 0 0 0 0 0 0 0 0 0 0 0 0 0 1 2 1 0
2045 1953 2329 2133 1500 1591 1835 1732 1838 1584 1575 1496 1480 1551 1373 1548 1609 1472 974 840 692 424 360 379 409 796 632 729 355 591 1157 1337 1210 1040 958 1159 1186 1214 1135 973 762 658 647 349 246 50 0 0 0 0 0 0 0 0 0 0 0 0 0 0 1 2 2 1 0 0 0 0 0 0 0 0 0 0 0 0 0 0 0 0 0 1 1 1 1
2195 1998 2068 2222 1756 1624 1619 1465 1708 1802 1634 1643 1460 1494 1498 1600 1277 1321 1314 1008 888 681 620 354 128 96 619 884 805 1259 1192 1258 1422 1387 1423 1270 1264 1272 1424 1274 1090 828 836 697 404 322 31 0 0 0 0 0 0 0 0 0 0 0 0 0 0 0 2 3 0 0 0 0 0 0 0 0 0 0 0 0 0 0 0 0 1 1 0 0 2
1902 1943 1971 2030 2071 1936 1771 1666 1735 1924 1752 1615 1700 1664 1484 1414 1384 904 554 440 690 1050 969 1064 407 312 439 504 593 626 783 817 1018 1035 1126 1162 935 1216 1379 1323 1193 1045 720 629 641 360 203 12 0 0 0 0 0 0 0 0 0 0 0 0 0 0 0 1 1 1 0 0 0 0 0 0 0 0 0 0 0 0 0 0 0 1 0 1 2
1574 1516 1641 1667 1974 2020 1827 1824 1768 1719 1656 1594 1515 1210 1080 1286 1192 723 606 378 252 423 483 803 798 345 306 166 190 366 252 640 727 916 853 1016 1112 1012 1118 1143 1225 1202 1264 1043 838 582 411 174 127 37 39 10 3 0 0 0 0 0 0 0 0 0 0 0 1 0 0 0 0 0 0 0 0 0 0 0 0 0 0 0 0 0 1 1 5
1349 1388 1364 1552 1694 1859 1667 1522 1260 1239 1453 1393 1323 1147 1038 1262 936 940 713 370 244 201 413 576 730 678 379 441 298 234 177 273 930 1047 1079 915 937 930 833 976 1223 1328 1344 1267 1015 725 637 447 294 189 156 104 79 0 0 0 0 0 0 0 0 0 0 0 0 0 0 0 1 0 0 0 0 0 0 0 0 0 0 0 0 0 1 4 4
868 908 1058 1351 1508 1391 1439 1592 1331 1241 1438 1403 1250 1149 1141 1239 962 909 807 383 221 258 338 457 607 768 570 358 567 880 1138 1237 353 865 1661 1483 923 704 564 816 973 1168 1577 1492 1045 800 694 640 483 304 303 272 186 97 0 0 0 0 0 0 0 0 0 0 0 0 0 0 0 2 0 0 1 0 0 0 0 0 0 0 0 0 1 3 5
821 726 785 1057 1472 1382 1201 1407 1159 1380 931 928 1135 1227 1300 1349 1213 932 717 444 273 120 203 373 734 859 832 695 586 570 1065 1701 878 882 374 996 883 1008 1214 922 840 1152 1415 1284 1381 1145 875 670 630 474 329 361 229 126 78 49 19 9 10 10 32 12 0 0 0 0 0 0 0 1 1 3 2 1 1 0 0 0 0 0 0 1 2 2 1
728 739 621 697 983 1380 1224 1178 1205 1085 1051 1036 1138 1018 1164 1234 952 863 857 617 496 400 371 436 519 540 676 778 1234 1126 1223 1344 1308 846 462 370 438 679 451 589 869 1133 1107 1023 1145 1474 1134 908 612 436 418 323 299 221 167 168 126 32 18 49 192 83 34 2 10 8 0 0 0 0 1 0 0 1 0 1 0 0 0 0 0 0 1 0 0
746 587 567 650 897 1723 1708 1146 865 980 949 1155 1187 1129 1202 1280 969 736 693 720 689 670 682 638 682 625 780 1344 757 763 824 1225 1068 994 710 556 354 374 282 416 650 928 1279 1480 1381 1306 1011 819 499 472 380 402 339 284 248 194 187 178 42 45 204 239 80 60 56 30 6 0 0 0 0 0 0 0 0 0 0 0 0 0 0 0 0 0 0
1040 840 820 675 656 1090 1449 1088 1002 743 734 927 1018 988 979 1081 1280 1117 1019 910 860 883 797 514 496 748 836 1888 950 975 732 667 867 694 879 586 324 447 473 486 388 459 788 1061 1165 954 1035 980 613 454 426 401 345 326 272 284 294 298 233 0 201 289 226 134 96 64 31 11 2 0 0 0 0 0 0 0 0 0 0 0 0 0 0 0 0
1006 1074 1051 874 884 1011 1318 897 813 967 927 961 842 848 1068 1160 1151 1064 1260 1181 1054 1100 792 620 677 630 610 1240 1023 782 637 553 671 596 554 556 637 623 562 498 483 608 581 358 527 904 1070 865 712 660 514 456 331 356 378 352 336 322 202 0 14 127 246 355 235 179 118 48 18 4 0 0 1 1 0 0 1 1 1 1 0 0 0 0 0
956 1033 1041 776 832 630 691 664 810 677 770 852 779 756 795 846 935 907 1093 1280 1319 1279 1027 825 774 612 588 913 1300 1092 875 618 547 441 553 569 638 538 410 570 621 471 531 690 766 858 1138 1072 984 955 784 570 454 372 410 447 418 278 112 27 0 63 193 556 484 285 213 155 92 56 9 2 2 1 1 2 2 3 3 1 0 0 0 0 0
902 1022 1356 1465 1280 1074 940 599 620 852 867 774 850 842 798 780 743 992 1138 1076 1092 1169 1111 982 816 894 973 1238 1407 1316 1045 938 860 1026 674 593 758 630 563 634 589 463 480 727 972 1098 1256 1332 1281 1023 815 704 455 461 426 389 491 317 34 171 0 1 57 475 720 586 426 303 243 141 94 52 20 4 2 0 0 2 2 1 0 0 0 0 0
823 923 1090 1000 1203 692 592 761 563 450 491 588 777 691 516 578 671 756 709 821 1000 982 1154 1252 1277 1403 1470 1397 1275 1306 1220 1034 897 920 702 626 716 724 594 511 445 364 409 344 654 723 746 788 848 1033 1192 1099 973 705 587 508 393 352 146 182 0 0 0 88 490 738 617 568 371 293 177 118 82 39 19 1 0 0 0 0 0 0 0 0 0
1137 1174 966 762 800 1148 663 598 582 414 487 410 613 288 768 711 545 564 646 613 694 800 754 976 1008 1225 1289 1251 917 917 796 1002 1120 1165 1036 761 512 721 757 582 430 457 390 778 796 649 600 648 752 982 1214 1309 1177 948 673 570 481 382 340 27 168 0 0 0 12 275 605 731 606 420 307 195 115 57 28 7 0 0 0 0 1 8 1 4 0
951 1240 1034 1007 850 762 713 658 778 678 588 537 675 600 589 681 672 638 770 897 674 668 722 886 878 828 837 718 758 960 854 798 827 657 680 925 999 706 608 746 579 387 479 633 573 597 511 444 419 764 963 976 844 751 706 574 496 468 430 39 336 7 0 0 0 7 248 599 734 629 452 316 232 145 95 81 38 36 44 25 35 42 39 29 41
886 1061 847 1076 1031 930 815 773 832 637 788 655 686 584 571 589 485 502 534 620 522 90 457 642 718 644 738 732 751 845 803 720 680 735 725 689 662 560 488 470 534 632 504 492 450 449 511 814 398 1145 1248 1131 990 908 801 654 524 419 399 90 354 330 1 0 0 0 0 32 176 565 694 576 399 281 183 154 125 85 82 65 49 51 58 48 41
716 1024 1130 1064 1084 974 740 813 1158 960 769 780 816 688 681 599 616 607 642 626 429 372 489 515 548 556 646 583 676 687 691 632 636 619 633 731 678 633 746 671 624 510 444 393 522 470 478 373 816 844 1383 1082 1433 1154 613 509 496 367 396 247 379 675 1 0 0 0 0 0 0 14 256 574 640 531 430 316 250 193 149 129 116 108 76 77 73
968 1079 1063 871 823 793 654 681 964 800 857 813 734 955 898 786 733 680 782 728 540 430 385 340 353 354 307 371 505 572 590 527 550 552 647 692 690 618 732 802 602 672 584 478 403 487 469 537 827 1025 1183 1060 870 796 781 777 433 263 264 288 343 394 327 0 0 0 0 0 0 0 0 92 430 548 482 430 369 356 294 255 177 180 131 38 1
1057 759 910 765 598 782 622 765 737 733 606 608 637 637 775 817 750 697 716 656 597 662 575 433 376 362 385 452 633 657 592 415 373 503 617 596 535 534 581 626 547 312 404 440 462 552 680 791 1074 916 801 562 643 717 756 818 788 241 370 320 372 80 129 555 0 0 0 0 0 0 0 0 16 144 346 428 464 407 425 368 263 66 0 0 0
859 712 612 660 795 705 650 540 395 320 301 330 325 252 270 404 558 713 690 543 460 466 554 471 303 272 366 395 386 496 495 521 552 502 400 365 361 447 499 424 402 482 522 612 577 622 620 591 613 584 613 1077 675 533 816 944 851 539 198 222 291 420 492 434 277 0 0 0 0 0 0 0 0 0 16 152 208 154 243 195 225 191 68 0 0
541 503 338 390 138 131 62 0 0 0 0 1 3 2 1 9 164 536 614 625 607 507 515 433 329 296 353 289 372 268 488 558 341 329 381 454 544 577 426 344 418 424 390 395 575 529 514 537 426 537 401 719 601 912 727 675 622 456 679 630 491 563 488 591 534 445 0 0 0 0 0 0 0 0 0 0 0 0 0 0 0 143 170 139 22
452 129 34 0 0 0 0 0 0 0 0 0 0 0 0 0 0 52 191 557 663 792 577 473 496 489 401 304 252 263 304 373 343 319 284 295 284 373 277 280 408 408 356 447 373 251 167 242 378 519 418 738 720 759 947 915 793 848 738 563 553 452 306 401 544 579 411 219 0 0 0 0 0 0 0 0 0 0 0 0 0 0 0 0 61
21 0 0 0 0 0 0 0 0 0 0 0 0 0 0 0 0 0 105 212 423 483 527 433 462 426 356 283 245 265 270 235 220 277 282 229 209 265 248 356 462 330 313 345 402 267 235 369 365 634 648 508 586 803 970 889 895 854 825 672 481 528 448 434 172 492 296 500 510 466 223 22 0 0 0 0 0 0 0 0 0 0 0 0 0
0 0 0 0 0 0 0 0 0 0 0 0 0 0 0 0 0 0 0 0 105 370 453 447 519 459 524 381 270 164 161 126 142 131 108 112 178 247 322 446 415 364 379 376 288 220 314 353 427 588 622 671 656 688 840 942 709 600 664 704 789 950 666 572 496 314 213 335 0 371 531 542 485 249 0 0 0 0 0 0 0 0 0 0 0
8 3 0 0 0 0 0 0 0 0 0 0 0 0 0 0 0 0 0 0 13 246 305 300 366 412 231 135 102 6 3 3 4 5 6 5 104 108 131 140 242 314 351 378 442 320 353 340 305 472 626 651 577 571 630 648 372 376 430 491 640 529 289 395 773 1106 887 748 469 0 446 530 634 630 610 494 400 67 0 0 0 0 0 0 0
16 13 1 0 0 0 0 0 0 0 0 0 0 0 0 0 0 0 0 0 2 93 97 51 99 178 180 108 22 0 0 0 0 0 1 11 60 82 81 86 89 112 161 246 354 274 256 229 327 352 424 661 734 537 458 701 908 623 440 452 461 877 368 351 629 718 743 990 728 612 570 597 710 692 649 600 580 579 533 462 285 32 0 0 0
5 8 9 1 0 0 0 0 0 0 0 0 0 0 0 0 0 0 0 0 0 7 0 0 0 20 69 9 1 0 0 0 0 0 0 0 6 30 53 59 56 80 118 160 206 226 276 238 252 336 374 162 392 517 584 590 562 585 914 794 648 478 393 495 640 511 669 882 898 906 852 901 754 646 566 251 432 477 508 506 478 367 0 0 0
3 1 0 2 2 0 0 0 0 0 0 0 0 0 0 0 0 0 0 0 1 1 0 0 0 0 8 1 0 0 0 0 0 0 0 0 0 0 0 0 3 0 10 62 107 124 187 185 164 212 244 244 291 374 320 302 240 317 589 477 366 340 384 435 790 1722 1416 911 888 1217 971 746 684 486 395 448 450 421 472 516 520 458 225 0 0
1 0 0 1 0 0 0 0 0 0 0 0 0 0 0 0 0 0 0 0 0 0 0 0 0 0 0 4 0 0 0 0 0 0 0 0 0 0 0 0 0 0 0 0 1 20 65 85 121 154 136 64 108 264 248 213 202 133 169 160 194 198 170 212 356 958 1611 822 496 348 513 753 514 584 604 640 603 515 516 545 536 471 423 194 0
4 0 0 0 0 0 0 0 0 0 0 0 0 0 0 0 0 0 0 0 0 0 0 0 0 0 0 0 0 0 0 0 0 0 0 0 0 0 0 0 0 0 0 0 0 2 7 20 33 58 107 81 80 173 241 236 212 233 160 127 166 157 193 147 81 90 1133 1492 989 749 545 1056 778 532 452 442 486 326 416 538 498 468 502 431 169
3 3 0 0 0 0 0 0 0 0 0 0 0 0 0 0 0 0 0 1 0 0 0 0 2 0 0 0 1 0 0 0 0 0 0 0 0 0 0 0 0 0 0 0 0 0 1 6 9 20 50 110 101 149 103 31 34 81 186 166 132 162 167 140 83 57 378 748 372 497 409 570 728 599 552 547 487 416 458 463 438 394 354 364 369
4 0 1 0 0 0 1 0 0 0 0 0 0 0 0 0 0 0 0 1 0 0 0 0 8 0 0 0 0 0 0 0 0 0 0 0 0 0 0 0 0 0 0 0 0 0 4 4 5 3 3 2 0 0 18 6 52 56 64 74 104 127 124 86 102 110 172 442 363 376 395 359 852 706 548 462 391 406 433 450 501 533 462 345 370
3 0 0 0 0 0 1 0 0 0 0 0 0 0 0 0 0 0 0 0 0 0 0 3 4 0 0 0 0 0 0 0 0 0 0 0 0 0 0 0 0 0 0 0 0 0 0 0 0 0 0 0 0 0 0 3 1 0 1 4 74 69 106 102 85 81 131 222 260 283 325 321 296 314 279 301 366 506 518 580 652 674 790 880 833
0 0 0 0 0 0 0 2 0 0 0 0 0 0 0 0 0 0 0 0 0 0 0 5 0 0 0 0 0 0 0 0 0 0 0 0 0 0 0 0 0 0 0 1 0 0 0 0 0 0 0 0 0 0 0 0 0 0 0 0 0 8 47 84 83 83 102 189 391 330 220 276 280 284 317 313 263 471 757 745 760 856 898 764 612
0 4 0 0 0 0 0 1 0 0 0 0 0 0 0 0 0 0 0 0 0 0 0 2 0 0 0 0 0 0 0 0 0 0 0 0 0 0 0 0 0 0 0 0 0 0 0 0 0 0 0 0 0 0 0 0 0 0 0 0 0 0 0 2 0 0 2 66 411 472 277 166 87 248 368 420 404 406 584 882 1080 1068 910 757 617
0 3 2 0 0 0 0 0 0 0 0 0 0 0 0 0 0 0 0 0 0 0 0 6 0 0 0 0 0 0 0 0 0 0 0 0 0 0 0 0 0 0 0 0 0 0 0 0 0 0 0 0 0 0 0 0 0 0 0 0 0 0 2 10 1 0 0 12 94 406 236 84 175 347 462 466 446 498 612 752 844 871 848 742 600
0 1 2 0 0 0 0 0 0 0 0 0 0 0 0 0 0 0 0 0 0 0 0 0 2 0 0 0 0 0 0 0 0 0 0 0 0 0 0 0 0 0 0 0 0 0 0 0 0 0 0 0 0 0 0 0 0 0 0 0 1 3 10 18 16 2 0 0 19 211 244 268 330 390 459 452 466 554 690 757 764 694 562 494 445
0 0 1 0 0 0 0 0 0 0 0 0 0 0 0 0 0 0 0 0 0 0 0 0 2 2 0 0 0 0 0 0 0 0 0 0 0 0 0 0 0 0 0 0 0 0 0 0 0 0 0 0 0 0 0 0 0 0 0 0 0 0 9 8 11 16 15 22 89 147 138 137 186 299 430 377 316 372 500 545 589 619 586 484 418
Wind_Speed
16 19 15 14 18 18 20 20 19 17 15 16 13 10 9 14 12 10 9 11 15 11 11 7 13 15 14 17 nan nan nan nan nan nan nan nan nan nan nan nan nan nan nan nan nan nan nan nan nan nan nan nan nan nan nan nan nan nan nan nan nan nan nan nan nan nan nan nan nan nan nan nan nan nan nan nan nan nan nan nan nan nan nan nan nan
14 17 19 16 13 14 17 18 20 21 21 18 13 12 13 15 13 11 10 13 15 12 9 8 13 15 16 16 16 nan nan nan nan nan nan nan nan nan nan nan nan nan nan nan nan nan nan nan nan nan nan nan nan nan nan nan nan nan nan nan nan nan nan nan nan nan nan nan nan nan nan nan nan nan nan nan nan nan nan nan nan nan nan nan nan
16 16 18 20 18 14 11 13 17 20 23 20 16 14 15 16 15 13 13 17 16 16 15 15 15 14 17 17 18 16 nan nan nan nan nan nan nan nan nan nan nan nan nan nan nan nan nan nan nan nan nan nan nan nan nan nan nan nan nan nan nan nan nan nan nan nan nan nan nan nan nan nan nan nan nan nan nan nan nan nan nan nan nan nan nan
17 17 17 18 20 18 14 11 14 19 20 21 19 16 16 13 15 13 13 19 15 17 15 19 16 19 9 19 20 16 18 15 nan nan nan nan nan nan nan nan nan nan nan nan nan nan nan nan nan nan nan nan nan nan nan nan nan nan nan nan nan nan nan nan nan nan nan nan nan nan nan nan nan nan nan nan nan nan nan nan nan nan nan nan nan
18 17 18 18 18 18 17 15 14 15 18 20 19 19 17 15 15 13 17 17 15 16 15 18 18 17 14 23 18 20 18 18 15 18 20 nan nan nan nan nan nan nan nan nan nan nan nan nan nan nan nan nan nan nan nan nan nan nan nan nan nan nan nan nan nan nan nan nan nan nan nan nan nan nan nan nan nan nan nan nan nan nan nan nan nan
21 19 19 19 18 18 18 18 17 17 16 18 18 17 17 17 16 17 16 17 16 17 16 17 17 16 19 21 19 20 19 19 18 20 17 nan nan nan nan nan nan nan nan nan nan nan nan nan nan nan nan nan nan nan nan nan nan nan nan nan nan nan nan nan nan nan nan nan nan nan nan nan nan nan nan nan nan nan nan nan nan nan nan nan nan
23 21 21 20 19 17 18 19 20 19 18 18 19 18 17 17 17 18 18 19 17 17 18 18 17 17 21 17 21 17 19 19 19 22 18 19 25 nan nan nan nan nan nan nan nan nan nan nan nan nan nan nan nan nan nan nan nan nan nan nan nan nan nan nan nan nan nan nan nan nan nan nan nan nan nan nan nan nan nan nan nan nan nan nan nan
23 24 22 21 20 17 17 19 21 20 19 19 20 20 18 18 17 18 18 19 20 17 21 19 19 18 19 21 19 19 18 19 19 20 20 19 21 24 nan nan nan nan nan nan nan nan nan nan nan nan nan nan nan nan nan nan nan nan nan nan nan nan nan nan nan nan nan nan nan nan nan nan nan nan nan nan nan nan nan nan nan nan nan nan nan
24 24 24 23 22 19 18 18 21 20 20 20 22 23 21 19 19 18 18 18 18 17 21 24 21 18 22 20 21 20 18 18 19 20 20 17 19 22 24 nan nan nan nan nan nan nan nan nan nan nan nan nan nan nan nan nan nan nan nan nan nan nan nan nan nan nan nan nan nan nan nan nan nan nan nan nan nan nan nan nan nan nan nan nan nan
25 25 25 25 24 22 20 19 19 19 20 20 22 24 25 22 20 20 19 19 19 20 20 24 23 21 24 23 19 19 19 19 19 19 18 19 17 20 23 22 nan nan nan nan nan nan nan nan nan nan nan nan nan nan nan nan nan nan nan nan nan nan nan nan nan nan nan nan nan nan nan nan nan nan nan nan nan nan nan nan nan nan nan nan nan
25 26 26 27 26 24 22 20 19 19 20 20 22 24 25 24 21 22 22 21 21 21 21 23 23 22 23 24 24 20 22 21 20 19 18 17 17 18 22 21 20 18 nan nan nan nan nan nan nan nan nan nan nan nan nan nan nan nan nan nan nan nan nan nan nan nan nan nan nan nan nan nan nan nan nan nan nan nan nan nan nan nan nan nan nan
25 27 28 27 27 27 23 23 22 22 20 20 21 23 23 22 21 21 23 23 22 21 22 22 22 24 23 26 24 19 21 22 19 19 19 17 16 17 19 22 22 19 18 18 nan nan nan nan nan nan nan nan nan nan nan nan nan nan nan nan nan nan nan nan nan nan nan nan nan nan nan nan nan nan nan nan nan nan nan nan nan nan nan nan nan
27 27 29 32 31 27 25 25 25 23 21 20 20 20 22 23 23 25 24 23 23 23 23 25 23 23 24 25 26 18 20 20 18 17 18 17 16 17 19 21 21 19 19 19 20 nan nan nan nan nan nan nan nan nan nan nan nan nan nan nan nan nan nan nan nan nan nan nan nan nan nan nan nan nan nan nan nan nan nan nan nan nan nan nan nan
29 28 29 32 33 29 27 27 26 25 22 22 21 21 22 24 28 25 26 24 25 25 25 28 24 nan 25 26 26 27 27 24 20 17 17 17 16 16 18 19 19 19 21 21 19 18 nan nan nan nan nan nan nan nan nan nan nan nan nan nan nan nan nan nan nan nan nan nan nan nan nan nan nan nan nan nan nan nan nan nan nan nan nan nan nan
30 30 30 30 32 31 29 28 27 26 24 23 25 24 26 26 29 27 28 28 25 25 26 28 26 26 25 25 27 28 27 25 21 18 18 17 15 15 18 18 17 19 20 20 21 18 18 nan nan nan nan nan nan nan nan nan nan nan nan nan nan nan nan nan nan nan nan nan nan nan nan nan nan nan nan nan nan nan nan nan nan nan nan nan nan
31 30 30 31 32 33 31 29 29 29 26 25 27 27 26 26 29 31 31 30 23 23 25 26 26 26 25 25 26 30 25 24 24 21 19 17 16 15 17 18 18 18 21 20 21 21 17 16 18 nan nan nan nan nan nan nan nan nan nan nan nan nan nan nan nan nan nan nan nan nan nan nan nan nan nan nan nan nan nan nan nan nan nan nan nan
30 31 30 32 33 33 33 32 32 30 29 27 27 28 27 26 27 28 28 28 24 25 24 27 25 27 25 25 27 27 25 26 29 23 22 18 15 15 15 15 17 18 21 20 20 21 19 15 13 14 14 14 nan nan nan nan nan nan nan nan nan nan nan nan nan nan nan nan nan nan nan nan nan nan nan nan nan nan nan nan nan nan nan nan nan
28 29 30 32 34 37 33 34 33 32 30 29 29 31 28 27 28 28 26 26 29 27 24 24 24 25 26 24 27 30 30 31 32 27 26 24 25 16 12 17 16 16 20 19 18 20 19 15 14 11 12 13 14 nan nan nan nan nan nan nan nan nan nan nan nan nan nan nan nan nan nan nan nan nan nan nan nan nan nan nan nan nan nan nan nan
25 25 29 33 34 40 37 34 33 32 38 31 29 31 30 28 30 29 27 28 30 27 22 21 23 24 26 26 23 23 27 32 31 31 25 26 22 17 14 16 17 15 19 17 15 21 20 16 12 12 11 13 15 15 nan nan nan nan nan nan nan nan nan nan nan nan nan nan nan nan nan nan nan nan nan nan nan nan nan nan nan nan nan nan nan
24 25 28 31 34 38 35 33 33 34 37 32 30 30 31 29 29 30 30 30 29 27 23 22 23 24 27 29 31 30 29 29 30 34 31 25 20 25 20 18 19 16 16 16 17 18 21 16 11 11 12 11 15 16 15 17 18 nan nan nan 21 nan nan nan nan nan nan nan nan nan nan nan nan nan nan nan nan nan nan nan nan nan nan nan nan
24 23 24 26 32 36 36 38 35 34 34 33 33 33 30 30 29 30 30 29 28 27 26 27 28 26 27 33 29 25 26 29 34 38 33 27 21 22 20 24 23 14 14 17 18 21 19 16 13 10 13 12 12 15 16 16 14 16 nan nan 22 22 nan nan nan nan nan nan nan nan nan nan nan nan nan nan nan nan nan nan nan nan nan nan nan
27 25 25 27 30 33 37 39 35 32 33 33 34 32 32 31 30 30 30 28 29 29 27 27 28 29 31 34 32 30 30 31 34 36 36 33 24 24 25 23 20 19 18 16 17 17 17 17 14 12 14 13 12 13 16 16 16 14 16 nan 22 22 23 24 nan nan nan nan nan nan nan nan nan nan nan nan nan nan nan nan nan nan nan nan nan
27 26 25 27 31 35 36 39 39 34 35 37 35 33 32 32 32 32 31 28 29 30 29 27 28 29 30 33 31 31 32 35 34 37 40 36 31 26 24 24 22 17 17 17 16 17 16 16 15 16 15 12 13 14 15 17 16 15 11 nan nan 21 22 23 24 25 25 nan nan nan nan nan nan nan nan nan nan nan nan nan nan nan nan nan nan
31 31 30 31 35 35 35 36 36 32 32 32 32 34 37 34 36 33 31 30 30 31 31 28 28 29 29 32 31 31 33 35 34 34 36 33 32 29 26 30 28 21 19 20 19 18 18 16 15 17 17 15 13 14 15 17 17 17 15 nan nan nan 21 22 23 23 24 24 nan nan nan nan nan nan nan nan nan nan nan nan nan nan nan nan nan
30 30 30 28 33 34 35 34 34 33 32 32 31 35 34 36 34 33 32 31 32 32 32 30 30 29 30 32 32 32 30 32 31 32 33 35 35 30 28 32 30 27 24 23 21 23 20 18 18 18 16 15 14 13 15 16 16 17 nan 16 nan nan nan 21 21 22 23 23 23 24 nan nan nan nan nan nan nan nan nan nan nan nan nan nan nan
27 29 28 29 31 33 34 34 34 36 34 33 32 34 35 35 37 36 33 32 33 31 30 31 32 31 31 32 33 32 30 30 30 31 33 35 35 32 30 35 34 28 27 25 21 21 20 21 21 19 18 16 14 14 16 16 15 15 19 17 nan nan nan nan 20 20 22 22 22 22 22 22 nan nan nan nan nan nan nan nan nan nan nan nan nan
25 26 26 26 30 33 34 32 37 38 35 33 32 32 30 31 32 34 33 31 32 29 30 31 31 32 32 32 32 30 28 28 29 29 33 34 34 35 36 33 33 31 27 27 27 23 21 23 23 19 19 19 16 14 16 17 13 12 17 nan 20 nan nan nan nan 19 19 20 21 20 20 19 19 nan nan nan nan nan nan nan nan nan nan nan nan
22 22 22 21 27 31 37 32 28 34 33 30 28 30 32 31 32 33 28 33 33 30 30 31 29 30 30 30 30 28 30 30 31 31 29 32 36 37 35 35 33 29 30 29 31 26 21 22 22 19 22 21 18 18 16 12 13 11 17 nan 19 nan nan nan nan nan 18 18 19 20 20 19 19 18 nan nan nan nan nan nan nan nan nan nan nan
21 21 20 22 22 25 34 30 28 29 32 30 31 31 31 29 31 33 29 26 25 nan 25 28 29 30 31 30 31 29 30 31 31 31 30 32 33 34 32 32 35 33 31 31 31 30 27 32 25 24 27 26 24 25 22 17 14 12 19 nan 19 21 nan nan nan nan nan nan 17 18 19 20 19 18 18 17 17 nan nan nan nan nan nan nan nan
20 19 19 21 22 25 28 29 29 30 34 35 34 34 33 31 33 34 32 32 30 29 31 30 28 30 29 32 34 32 30 29 28 29 30 30 33 31 33 35 35 34 33 30 29 32 33 28 28 26 34 31 31 28 23 17 16 15 16 19 19 21 nan nan nan nan nan nan nan nan 16 17 17 18 17 18 17 17 17 18 19 19 nan nan nan
18 20 21 23 22 22 27 26 26 29 33 35 34 35 34 33 36 35 35 34 33 32 35 34 31 29 24 26 30 32 34 32 29 31 30 30 27 29 31 34 34 34 34 32 26 28 32 29 29 30 36 41 38 33 28 25 23 23 16 14 17 19 26 nan nan nan nan nan nan nan nan nan 15 16 16 16 17 17 18 18 18 17 17 nan nan
18 19 18 22 19 19 19 23 24 27 30 32 34 35 34 35 36 35 35 37 35 33 35 39 38 34 28 25 26 26 29 32 30 28 28 29 27 29 31 32 33 32 34 32 26 22 29 31 31 33 40 42 37 31 31 30 26 19 14 14 13 nan 25 23 nan nan nan nan nan nan nan nan nan 12 13 12 13 13 14 16 15 nan nan nan nan
19 17 20 17 18 17 17 21 22 23 25 28 30 32 32 33 35 37 37 38 37 36 38 42 41 38 34 32 32 33 35 34 36 36 32 30 29 30 30 32 35 36 34 35 31 27 29 34 33 34 36 38 34 32 31 30 31 27 18 9 11 18 22 22 24 nan nan nan nan nan nan nan nan nan nan 10 10 10 10 10 10 10 nan nan nan
19 20 21 20 20 20 nan nan nan nan nan nan nan nan nan nan 33 34 35 37 39 38 39 41 42 41 40 39 40 37 35 36 39 37 34 34 34 35 32 31 32 33 36 39 37 32 27 32 33 32 33 36 34 34 31 29 30 29 25 23 21 20 20 23 23 24 nan nan nan nan nan nan nan nan nan nan nan nan nan nan nan 8 9 10 nan
21 23 nan nan nan nan nan nan nan nan nan nan nan nan nan nan nan nan 32 33 35 35 36 39 41 40 42 44 46 44 41 38 39 39 40 39 37 33 30 29 31 33 36 41 39 33 31 31 31 29 31 36 37 34 33 31 31 31 27 25 23 21 18 21 23 25 26 23 nan nan nan nan nan nan nan nan nan nan nan nan nan nan nan nan nan
nan nan nan nan nan nan nan nan nan nan nan nan nan nan nan nan nan nan 29 30 33 35 36 38 40 42 44 45 46 47 48 47 46 45 45 44 42 37 32 31 35 35 36 37 37 35 34 30 30 29 31 34 36 37 35 34 33 32 30 27 26 23 25 29 27 26 27 25 25 22 22 nan nan nan nan nan nan nan nan nan nan nan nan nan nan
nan nan nan nan nan nan nan nan nan nan nan nan nan nan nan nan nan nan nan nan 29 33 35 36 41 41 43 46 47 49 49 50 49 48 46 48 48 49 45 39 35 35 36 35 30 30 29 25 25 30 32 33 34 37 40 38 35 35 34 30 30 29 27 27 27 31 43 27 nan 21 24 23 23 23 nan nan nan nan nan nan nan nan nan nan nan
nan nan nan nan nan nan nan nan nan nan nan nan nan nan nan nan nan nan nan nan nan 32 34 36 40 40 45 49 52 nan nan nan nan nan nan nan 46 51 54 49 42 38 38 37 33 30 29 27 27 28 31 33 37 39 41 40 37 38 36 33 33 34 29 23 24 31 30 26 28 nan 27 27 25 23 22 23 22 nan nan nan nan nan nan nan nan
nan nan nan nan nan nan nan nan nan nan nan nan nan nan nan nan nan nan nan nan nan nan nan nan nan 42 47 50 nan nan nan nan nan nan nan nan nan nan nan nan nan 42 39 38 37 31 29 29 31 31 30 32 37 37 40 43 42 40 37 37 36 37 33 29 30 32 31 28 34 28 23 26 29 28 25 22 21 22 22 22 21 nan nan nan nan
nan nan nan nan nan nan nan nan nan nan nan nan nan nan nan nan nan nan nan nan nan nan nan nan nan nan nan nan nan nan nan nan nan nan nan nan nan nan nan nan nan nan 41 39 40 37 32 29 31 34 35 35 36 36 38 44 45 43 44 45 41 38 36 34 33 31 33 36 37 32 28 31 31 29 27 26 24 23 22 21 19 19 nan nan nan
nan nan nan nan nan nan nan nan nan nan nan nan nan nan nan nan nan nan nan nan nan nan nan nan nan nan nan nan nan nan nan nan nan nan nan nan nan nan nan nan nan nan nan nan 42 42 39 34 30 31 34 36 38 39 40 45 47 47 49 51 48 43 40 38 37 38 38 38 38 37 37 34 32 32 34 32 30 28 24 22 22 19 18 nan nan
nan nan nan nan nan nan nan nan nan nan nan nan nan nan nan nan nan nan nan nan nan nan nan nan nan nan nan nan nan nan nan nan nan nan nan nan nan nan nan nan nan nan nan nan nan nan nan nan 38 35 32 nan 37 40 41 43 46 47 47 51 51 49 48 45 42 43 46 45 40 35 33 36 35 33 33 31 31 31 29 30 27 25 22 21 nan
nan nan nan nan nan nan nan nan nan nan nan nan nan nan nan nan nan nan nan nan nan nan nan nan nan nan nan nan nan nan nan nan nan nan nan nan nan nan nan nan nan nan nan nan nan nan nan nan nan nan 39 nan nan 38 40 42 44 46 47 49 51 51 50 49 nan nan 48 48 47 44 40 39 39 35 33 32 33 34 31 29 27 24 20 22 24
nan nan nan nan nan nan nan nan nan nan nan nan nan nan nan nan nan nan nan nan nan nan nan nan nan nan nan nan nan nan nan nan nan nan nan nan nan nan nan nan nan nan nan nan nan nan nan nan nan nan nan 44 41 41 43 nan nan nan 46 47 47 48 50 49 nan nan 48 51 48 47 42 43 43 39 37 34 35 34 30 29 27 25 22 21 24
nan nan nan nan nan nan nan nan nan nan nan nan nan nan nan nan nan nan nan nan nan nan nan nan nan nan nan nan nan nan nan nan nan nan nan nan nan nan nan nan nan nan nan nan nan nan nan nan nan nan nan nan nan nan nan nan nan nan nan nan 47 49 50 nan 45 45 44 49 48 49 47 45 48 45 40 37 38 38 33 28 25 25 23 23 23
nan nan nan nan nan nan nan nan nan nan nan nan nan nan nan nan nan nan nan nan nan nan nan nan nan nan nan nan nan nan nan nan nan nan nan nan nan nan nan nan nan nan nan nan nan nan nan nan nan nan nan nan nan nan nan nan nan nan nan nan nan nan 45 45 nan nan 44 49 48 48 47 43 45 45 38 36 41 42 40 36 30 26 25 26 26
nan nan nan nan nan nan nan nan nan nan nan nan nan nan nan nan nan nan nan nan nan nan nan nan nan nan nan nan nan nan nan nan nan nan nan nan nan nan nan nan nan nan nan nan nan nan nan nan nan nan nan nan nan nan nan nan nan nan nan nan nan nan nan nan nan nan 45 51 52 52 47 43 48 48 40 37 43 46 44 39 35 33 30 29 28
nan nan nan nan nan nan nan nan nan nan nan nan nan nan nan nan nan nan nan nan nan nan nan nan nan nan nan nan nan nan nan nan nan nan nan nan nan nan nan nan nan nan nan nan nan nan nan nan nan nan nan nan nan nan nan nan nan nan nan nan nan nan nan nan nan nan nan nan 54 57 53 45 nan 50 45 42 44 45 44 44 41 38 37 34 33
nan nan nan nan nan nan nan nan nan nan nan nan nan nan nan nan nan nan nan nan nan nan nan nan nan nan nan nan nan nan nan nan nan nan nan nan nan nan nan nan nan nan nan nan nan nan nan nan nan nan nan nan nan nan nan nan nan nan nan nan nan nan nan nan nan nan nan nan nan 53 54 nan 45 49 48 44 43 43 41 42 44 43 38 36 36
nan nan nan nan nan nan nan nan nan nan nan nan nan nan nan nan nan nan nan nan nan nan nan nan nan nan nan nan nan nan nan nan nan nan nan nan nan nan nan nan nan nan nan nan nan nan nan nan nan nan nan nan nan nan nan nan nan nan nan nan nan nan nan nan nan nan nan nan nan 48 49 46 46 52 51 46 46 45 42 41 42 42 40 40 36
nan nan nan nan nan nan nan nan nan nan nan nan nan nan nan nan nan nan nan nan nan nan nan nan nan nan nan nan nan nan nan nan nan nan nan nan nan nan nan nan nan nan nan nan nan nan nan nan nan nan nan nan nan nan nan nan nan nan nan nan nan nan nan nan nan nan nan nan nan 48 49 48 45 51 54 53 48 45 44 42 41 41 43 43 42
Wind_Direction
288 295 291 303 313 307 294 295 294 296 293 292 296 292 292 283 291 295 296 300 294 294 288 311 302 293 298 292 nan nan nan nan nan nan nan nan nan nan nan nan nan nan nan nan nan nan nan nan nan nan nan nan nan nan nan nan nan nan nan nan nan nan nan nan nan nan nan nan nan nan nan nan nan nan nan nan nan nan nan nan nan nan nan nan nan
292 291 293 295 293 298 307 296 298 292 294 295 300 301 302 300 301 300 300 298 289 272 298 293 285 297 293 293 294 nan nan nan nan nan nan nan nan nan nan nan nan nan nan nan nan nan nan nan nan nan nan nan nan nan nan nan nan nan nan nan nan nan nan nan nan nan nan nan nan nan nan nan nan nan nan nan nan nan nan nan nan nan nan nan nan
287 285 282 286 288 281 283 296 300 295 295 295 287 289 291 294 301 300 306 307 300 310 316 304 295 307 298 295 301 299 nan nan nan nan nan nan nan nan nan nan nan nan nan nan nan nan nan nan nan nan nan nan nan nan nan nan nan nan nan nan nan nan nan nan nan nan nan nan nan nan nan nan nan nan nan nan nan nan nan nan nan nan nan nan nan
278 279 279 286 290 281 278 278 290 296 296 292 292 293 289 289 296 298 300 288 304 297 303 293 300 272 284 302 303 306 312 308 nan nan nan nan nan nan nan nan nan nan nan nan nan nan nan nan nan nan nan nan nan nan nan nan nan nan nan nan nan nan nan nan nan nan nan nan nan nan nan nan nan nan nan nan nan nan nan nan nan nan nan nan nan
276 278 278 280 283 281 279 276 275 283 290 296 295 297 297 294 286 282 280 283 285 288 292 292 293 303 313 298 309 309 314 310 312 306 302 nan nan nan nan nan nan nan nan nan nan nan nan nan nan nan nan nan nan nan nan nan nan nan nan nan nan nan nan nan nan nan nan nan nan nan nan nan nan nan nan nan nan nan nan nan nan nan nan nan nan
277 274 274 275 275 277 277 278 275 273 274 282 279 273 282 281 278 280 279 280 283 286 289 280 285 290 290 300 310 307 315 314 312 307 302 nan nan nan nan nan nan nan nan nan nan nan nan nan nan nan nan nan nan nan nan nan nan nan nan nan nan nan nan nan nan nan nan nan nan nan nan nan nan nan nan nan nan nan nan nan nan nan nan nan nan
280 277 274 273 272 273 276 275 277 276 270 276 282 277 272 273 273 276 277 279 275 278 285 285 285 290 293 299 300 309 312 309 307 305 306 299 299 nan nan nan nan nan nan nan nan nan nan nan nan nan nan nan nan nan nan nan nan nan nan nan nan nan nan nan nan nan nan nan nan nan nan nan nan nan nan nan nan nan nan nan nan nan nan nan nan
279 278 278 275 272 273 274 272 274 275 272 266 272 275 271 275 272 270 269 275 280 277 281 279 278 280 281 285 292 294 297 301 305 302 303 303 300 302 nan nan nan nan nan nan nan nan nan nan nan nan nan nan nan nan nan nan nan nan nan nan nan nan nan nan nan nan nan nan nan nan nan nan nan nan nan nan nan nan nan nan nan nan nan nan nan
277 278 276 277 275 272 271 273 272 274 274 273 271 271 269 270 276 271 271 269 272 278 276 280 278 280 280 280 282 288 293 293 297 302 303 304 299 297 299 nan nan nan nan nan nan nan nan nan nan nan nan nan nan nan nan nan nan nan nan nan nan nan nan nan nan nan nan nan nan nan nan nan nan nan nan nan nan nan nan nan nan nan nan nan nan
274 275 275 275 274 273 272 272 272 272 271 273 274 270 272 271 271 275 272 270 267 265 266 276 279 276 277 284 278 283 284 285 288 293 304 304 300 296 295 295 nan nan nan nan nan nan nan nan nan nan nan nan nan nan nan nan nan nan nan nan nan nan nan nan nan nan nan nan nan nan nan nan nan nan nan nan nan nan nan nan nan nan nan nan nan
271 272 271 271 272 271 270 268 268 266 266 267 270 270 270 273 274 274 276 276 272 267 264 263 266 268 271 278 281 274 278 279 285 297 300 304 304 300 290 290 290 293 nan nan nan nan nan nan nan nan nan nan nan nan nan nan nan nan nan nan nan nan nan nan nan nan nan nan nan nan nan nan nan nan nan nan nan nan nan nan nan nan nan nan nan
265 267 269 268 262 263 265 265 263 261 261 262 265 271 275 275 275 271 272 276 276 271 268 267 270 277 271 265 258 265 276 275 280 288 295 303 305 295 290 284 284 282 282 291 nan nan nan nan nan nan nan nan nan nan nan nan nan nan nan nan nan nan nan nan nan nan nan nan nan nan nan nan nan nan nan nan nan nan nan nan nan nan nan nan nan
266 260 264 266 265 262 262 261 262 264 264 265 264 264 267 269 265 264 264 265 270 273 270 268 264 266 277 280 281 277 270 272 277 284 289 295 301 302 295 283 280 281 279 282 287 nan nan nan nan nan nan nan nan nan nan nan nan nan nan nan nan nan nan nan nan nan nan nan nan nan nan nan nan nan nan nan nan nan nan nan nan nan nan nan nan
266 262 258 261 266 263 262 264 264 264 263 262 266 263 261 261 256 253 261 263 261 267 269 269 269 nan 271 274 278 280 280 277 274 278 284 286 293 305 302 288 274 274 276 279 285 287 nan nan nan nan nan nan nan nan nan nan nan nan nan nan nan nan nan nan nan nan nan nan nan nan nan nan nan nan nan nan nan nan nan nan nan nan nan nan nan
266 264 260 259 263 264 263 261 262 263 263 263 261 261 261 258 259 258 246 246 250 258 263 269 267 271 274 272 277 273 271 272 277 281 285 288 291 302 309 299 282 266 269 278 284 286 284 nan nan nan nan nan nan nan nan nan nan nan nan nan nan nan nan nan nan nan nan nan nan nan nan nan nan nan nan nan nan nan nan nan nan nan nan nan nan
261 258 257 258 258 261 261 261 260 260 260 260 263 261 260 261 264 267 268 266 265 262 266 268 271 270 271 282 280 280 277 279 276 274 283 293 301 302 304 307 289 270 261 268 280 286 285 284 305 nan nan nan nan nan nan nan nan nan nan nan nan nan nan nan nan nan nan nan nan nan nan nan nan nan nan nan nan nan nan nan nan nan nan nan nan
258 255 253 254 259 260 261 259 258 258 259 259 262 264 264 267 270 269 274 276 276 267 262 269 278 281 278 277 283 286 285 272 268 267 275 281 294 296 296 301 293 273 262 265 273 283 287 287 289 302 319 320 nan nan nan nan nan nan nan nan nan nan nan nan nan nan nan nan nan nan nan nan nan nan nan nan nan nan nan nan nan nan nan nan nan
262 258 254 251 250 257 259 257 259 259 260 259 259 263 267 267 269 272 276 276 270 265 262 264 273 282 287 286 280 279 277 271 264 261 261 263 256 248 275 304 299 279 264 262 271 272 266 283 284 283 293 304 307 nan nan nan nan nan nan nan nan nan nan nan nan nan nan nan nan nan nan nan nan nan nan nan nan nan nan nan nan nan nan nan nan
266 258 254 253 251 253 253 256 255 255 254 251 254 259 262 264 267 271 273 270 270 270 271 266 264 272 277 281 286 282 277 273 271 262 254 255 252 260 268 280 294 292 272 265 270 271 272 266 280 292 290 292 301 305 nan nan nan nan nan nan nan nan nan nan nan nan nan nan nan nan nan nan nan nan nan nan nan nan nan nan nan nan nan nan nan
271 262 255 251 251 256 260 260 256 254 257 258 258 259 261 262 266 269 269 271 274 276 273 271 276 271 271 273 268 267 271 274 272 268 259 248 249 257 251 245 250 264 270 266 267 273 272 275 275 281 284 293 295 303 308 305 306 nan nan nan 342 nan nan nan nan nan nan nan nan nan nan nan nan nan nan nan nan nan nan nan nan nan nan nan nan
268 263 256 252 250 251 253 258 255 255 257 258 260 261 263 264 265 266 268 269 270 269 267 266 268 272 271 269 272 274 276 277 274 273 269 260 249 252 248 260 263 262 263 261 261 267 274 274 274 271 273 286 296 302 306 304 297 293 nan nan 337 346 nan nan nan nan nan nan nan nan nan nan nan nan nan nan nan nan nan nan nan nan nan nan nan
270 263 253 245 245 248 250 251 255 254 255 255 257 258 258 259 261 264 266 267 267 268 268 267 269 266 267 269 275 277 275 276 277 272 269 268 260 256 261 255 254 262 270 272 263 260 268 275 284 283 277 282 292 299 302 306 301 293 298 nan 338 342 348 358 nan nan nan nan nan nan nan nan nan nan nan nan nan nan nan nan nan nan nan nan nan
265 266 258 245 239 235 239 243 246 247 247 251 254 255 256 258 258 260 263 264 265 268 268 269 271 273 274 275 278 282 288 288 280 268 265 262 262 260 257 264 264 250 270 278 256 253 261 268 271 272 275 278 281 294 301 303 311 310 319 nan nan 339 345 351 359 3 5 nan nan nan nan nan nan nan nan nan nan nan nan nan nan nan nan nan nan
251 253 253 245 241 237 231 238 247 247 245 243 247 248 247 250 253 255 258 262 264 264 264 267 271 272 275 276 278 280 287 290 277 264 264 261 262 260 261 263 256 253 252 268 281 270 257 258 261 261 268 272 279 287 294 298 304 326 312 nan nan nan 344 345 355 -0 3 6 nan nan nan nan nan nan nan nan nan nan nan nan nan nan nan nan nan
246 249 251 246 248 239 241 240 235 238 244 245 245 246 247 251 254 255 256 259 262 263 262 263 265 269 271 273 276 279 285 289 277 262 258 256 257 257 259 267 266 250 245 252 261 262 255 257 255 253 263 273 276 283 286 293 294 309 nan 301 nan nan nan 342 346 353 359 3 7 11 nan nan nan nan nan nan nan nan nan nan nan nan nan nan nan
248 251 249 245 245 246 237 240 238 235 233 233 237 247 243 242 247 247 250 253 254 257 259 262 265 267 268 270 272 274 277 283 277 263 258 256 254 256 255 262 267 263 262 266 269 257 252 255 256 255 267 269 262 268 276 279 287 306 313 305 nan nan nan nan 345 348 356 0 3 7 12 17 nan nan nan nan nan nan nan nan nan nan nan nan nan
250 250 252 249 243 248 253 241 232 235 235 232 232 236 240 245 241 241 243 249 252 253 255 255 259 263 267 270 271 273 272 275 274 262 257 257 256 255 259 261 264 269 268 270 266 262 252 244 247 260 268 263 259 264 268 269 278 307 305 nan 292 nan nan nan nan 345 352 355 359 2 7 12 16 nan nan nan nan nan nan nan nan nan nan nan nan
256 254 251 257 253 248 253 249 238 234 239 238 237 235 237 240 243 242 239 240 240 242 248 250 252 253 255 259 266 269 269 270 267 257 249 249 251 251 258 263 266 265 266 263 266 266 264 259 247 253 262 262 258 257 268 285 272 289 299 nan 287 nan nan nan nan nan 347 352 356 2 4 7 12 15 nan nan nan nan nan nan nan nan nan nan nan
257 256 256 257 259 256 259 254 252 244 241 241 241 241 246 244 238 240 243 250 250 nan 252 248 248 252 254 255 260 263 265 267 270 271 267 262 259 257 257 264 270 269 262 262 263 262 260 260 253 248 254 249 249 246 247 258 269 271 273 nan 286 285 nan nan nan nan nan nan 349 358 5 6 10 13 16 19 22 nan nan nan nan nan nan nan nan
265 270 262 259 255 250 250 251 255 252 244 241 241 242 245 248 244 240 242 248 251 255 258 255 250 252 255 254 255 259 263 266 266 266 265 266 262 262 265 265 267 272 269 262 259 260 260 255 258 245 248 245 241 237 246 253 223 215 263 279 281 284 nan nan nan nan nan nan nan nan 358 3 8 17 18 20 23 26 31 36 39 40 nan nan nan
277 273 270 256 253 249 251 251 253 253 249 245 241 242 244 243 243 242 243 247 247 248 251 252 250 251 253 250 250 252 252 258 262 256 251 257 258 254 256 260 261 270 273 268 261 258 261 256 252 248 240 241 240 236 232 235 226 210 216 261 281 292 300 nan nan nan nan nan nan nan nan nan 0 11 20 28 31 33 37 39 40 41 40 nan nan
273 269 271 266 261 255 256 259 253 251 251 249 244 242 241 242 242 242 243 245 247 244 244 247 245 244 249 262 263 257 254 255 256 260 263 267 267 260 257 258 259 256 257 258 259 248 255 257 249 237 236 238 232 233 232 238 242 235 219 215 265 nan 281 280 nan nan nan nan nan nan nan nan nan 353 5 14 22 28 36 42 43 nan nan nan nan
259 259 262 266 268 267 260 263 256 250 248 247 248 246 245 244 244 244 244 247 249 249 247 249 252 249 247 250 254 253 252 250 251 252 256 262 266 268 261 252 248 249 250 251 252 252 248 252 249 241 240 246 239 240 239 240 247 242 227 231 235 264 271 276 281 nan nan nan nan nan nan nan nan nan nan 357 9 16 23 27 30 28 nan nan nan
255 258 259 263 260 258 nan nan nan nan nan nan nan nan nan nan 243 249 248 248 249 250 253 253 254 251 252 250 251 255 260 258 254 258 260 261 261 260 261 262 252 245 244 246 253 260 253 247 248 245 238 244 240 245 247 242 246 251 240 231 226 222 250 264 267 274 nan nan nan nan nan nan nan nan nan nan nan nan nan nan nan 4 9 15 nan
263 258 nan nan nan nan nan nan nan nan nan nan nan nan nan nan nan nan 243 248 252 254 255 256 255 256 255 253 251 253 257 261 263 261 259 258 259 255 249 255 255 247 247 248 249 259 259 250 247 240 246 246 247 239 238 241 243 250 246 239 226 225 227 243 255 265 286 296 nan nan nan nan nan nan nan nan nan nan nan nan nan nan nan nan nan
nan nan nan nan nan nan nan nan nan nan nan nan nan nan nan nan nan nan 243 242 247 248 252 255 257 257 256 256 255 254 254 256 255 255 255 255 255 257 262 262 258 247 248 250 249 257 262 257 251 245 243 242 243 244 242 241 240 242 247 243 245 239 231 226 225 233 262 291 293 291 292 nan nan nan nan nan nan nan nan nan nan nan nan nan nan
nan nan nan nan nan nan nan nan nan nan nan nan nan nan nan nan nan nan nan nan 249 250 252 256 260 260 259 257 255 256 256 256 255 254 254 249 248 252 254 258 258 252 251 261 261 258 260 264 253 250 250 249 246 243 242 241 239 237 238 240 239 241 239 240 241 239 231 236 nan 284 289 290 289 288 nan nan nan nan nan nan nan nan nan nan nan
nan nan nan nan nan nan nan nan nan nan nan nan nan nan nan nan nan nan nan nan nan 254 254 254 255 258 259 258 257 nan nan nan nan nan nan nan 249 249 249 249 250 250 253 259 268 263 256 254 249 244 251 248 246 245 246 248 243 236 234 235 239 245 244 239 243 245 246 242 253 nan 240 246 252 260 271 282 289 nan nan nan nan nan nan nan nan
nan nan nan nan nan nan nan nan nan nan nan nan nan nan nan nan nan nan nan nan nan nan nan nan nan 257 260 262 nan nan nan nan nan nan nan nan nan nan nan nan nan 251 254 254 258 266 268 261 253 254 248 247 248 242 243 245 244 239 233 232 232 242 243 241 239 246 253 244 243 247 256 258 256 256 258 261 272 285 292 298 303 nan nan nan nan
nan nan nan nan nan nan nan nan nan nan nan nan nan nan nan nan nan nan nan nan nan nan nan nan nan nan nan nan nan nan nan nan nan nan nan nan nan nan nan nan nan nan 257 257 255 254 256 258 258 253 251 248 247 250 245 243 241 240 240 239 236 231 230 237 243 244 251 249 248 254 262 262 257 259 262 265 269 270 269 269 282 292 nan nan nan
nan nan nan nan nan nan nan nan nan nan nan nan nan nan nan nan nan nan nan nan nan nan nan nan nan nan nan nan nan nan nan nan nan nan nan nan nan nan nan nan nan nan nan nan 258 255 252 253 253 255 253 251 251 249 245 243 241 238 239 241 238 237 238 239 243 255 258 256 249 244 253 258 256 255 259 259 259 268 270 283 276 286 295 nan nan
nan nan nan nan nan nan nan nan nan nan nan nan nan nan nan nan nan nan nan nan nan nan nan nan nan nan nan nan nan nan nan nan nan nan nan nan nan nan nan nan nan nan nan nan nan nan nan nan 251 249 250 nan 250 248 248 247 245 242 240 242 240 238 241 243 244 250 255 256 259 260 258 258 254 251 256 259 259 267 265 272 276 282 288 302 nan
nan nan nan nan nan nan nan nan nan nan nan nan nan nan nan nan nan nan nan nan nan nan nan nan nan nan nan nan nan nan nan nan nan nan nan nan nan nan nan nan nan nan nan nan nan nan nan nan nan nan 251 nan nan 252 248 247 244 242 242 244 244 242 243 245 nan nan 253 253 255 258 257 258 260 253 251 254 258 261 266 267 279 291 291 290 296
nan nan nan nan nan nan nan nan nan nan nan nan nan nan nan nan nan nan nan nan nan nan nan nan nan nan nan nan nan nan nan nan nan nan nan nan nan nan nan nan nan nan nan nan nan nan nan nan nan nan nan 249 248 251 251 nan nan nan 241 243 246 247 245 247 nan nan 254 254 250 250 252 255 259 256 249 250 254 257 260 265 277 281 285 290 292
nan nan nan nan nan nan nan nan nan nan nan nan nan nan nan nan nan nan nan nan nan nan nan nan nan nan nan nan nan nan nan nan nan nan nan nan nan nan nan nan nan nan nan nan nan nan nan nan nan nan nan nan nan nan nan nan nan nan nan nan 244 245 245 nan 250 249 251 258 254 251 250 252 261 259 252 250 254 255 255 259 268 275 279 286 293
nan nan nan nan nan nan nan nan nan nan nan nan nan nan nan nan nan nan nan nan nan nan nan nan nan nan nan nan nan nan nan nan nan nan nan nan nan nan nan nan nan nan nan nan nan nan nan nan nan nan nan nan nan nan nan nan nan nan nan nan nan nan 244 246 nan nan 250 260 262 256 250 248 257 261 257 249 253 256 256 260 272 278 280 283 288
nan nan nan nan nan nan nan nan nan nan nan nan nan nan nan nan nan nan nan nan nan nan nan nan nan nan nan nan nan nan nan nan nan nan nan nan nan nan nan nan nan nan nan nan nan nan nan nan nan nan nan nan nan nan nan nan nan nan nan nan nan nan nan nan nan nan 252 259 264 263 257 248 253 260 262 258 255 256 257 258 265 272 274 277 283
nan nan nan nan nan nan nan nan nan nan nan nan nan nan nan nan nan nan nan nan nan nan nan nan nan nan nan nan nan nan nan nan nan nan nan nan nan nan nan nan nan nan nan nan nan nan nan nan nan nan nan nan nan nan nan nan nan nan nan nan nan nan nan nan nan nan nan nan 261 265 259 251 nan 259 260 259 259 258 258 259 262 270 273 272 273
nan nan nan nan nan nan nan nan nan nan nan nan nan nan nan nan nan nan nan nan nan nan nan nan nan nan nan nan nan nan nan nan nan nan nan nan nan nan nan nan nan nan nan nan nan nan nan nan nan nan nan nan nan nan nan nan nan nan nan nan nan nan nan nan nan nan nan nan nan 266 263 nan 252 259 259 257 258 260 260 263 264 265 270 271 276
nan nan nan nan nan nan nan nan nan nan nan nan nan nan nan nan nan nan nan nan nan nan nan nan nan nan nan nan nan nan nan nan nan nan nan nan nan nan nan nan nan nan nan nan nan nan nan nan nan nan nan nan nan nan nan nan nan nan nan nan nan nan nan nan nan nan nan nan nan 263 260 258 250 255 259 257 257 262 261 263 265 265 268 270 275
nan nan nan nan nan nan nan nan nan nan nan nan nan nan nan nan nan nan nan nan nan nan nan nan nan nan nan nan nan nan nan nan nan nan nan nan nan nan nan nan nan nan nan nan nan nan nan nan nan nan nan nan nan nan nan nan nan nan nan nan nan nan nan nan nan nan nan nan nan 264 262 258 255 254 260 258 259 260 263 262 263 265 265 266 269